Dauntless Aviation
Airports Europe France
LFIY

Saint Jean d'Angely

FRANCE

Airport Info
Suggest Updated Information for this Airport

Location

Latitude / Longitude: 45°57'59"N / 0°31'31"W
  45°57.984'N / 0°31.518'W
  45.9664 / -0.5253

Runway Information

Runway 10 /28

Dimensions: 2789 x 164 ft.
Surface: U
 
Runway 10
Runway 28
Latitude: 45.966636 45.965728
Longitude: -0.528086 -0.518369
Elevation: 243 ft. 243 ft.
Runway true heading: 95.7 275.7
 

Instrument Procedures

IAPs (Instrument Approach Procedures)

  Visual Approch Chart
Satellite photo at:
Airport distance calculator
From:
Weather Reports

METAR

LFBG
20.0nm SE
LFBG 231230Z AUTO VRB05KT CAVOK 28/14 Q1021
LFBH
27.2nm W
LFBH 231230Z AUTO 28009KT CAVOK 26/15 Q1022 TEMPO 30015G25KT
LFBU
34.5nm E
LFBU 231230Z AUTO 32008KT 300V360 CAVOK 27/12 Q1021 NOSIG

TAF

LFBG
20.0nm SE
TAF LFBG 231100Z 2312/2412 28004KT CAVOK
LFBH
27.2nm W
TAF LFBH 231100Z 2312/2412 30005KT CAVOK BECMG 2312/2314 30015KT PROB30 TEMPO 2314/2320 30015G25KT BECMG 2323/2401 34005KT
LFBU
34.5nm E
TAF LFBU 231100Z 2312/2412 33010KT CAVOK BECMG 2321/2323 VRB02KT BECMG 2408/2410 27008KT
Safelog

 

Dauntless Aviation

© 2007-2016 Dauntless Aviation, all rights reserved
Information provided via PilotNav comes from a variety of official and unofficial data sources. As errors are possible, do not use PilotNav for primary flight planning purposes. Verify any information that you receive via PilotNav with current and canonical charts and other official documents. The material in this database is subject to database copyrights held by Dauntless Aviation and may not be copied without the express permission of Dauntless Aviation - licenses for use of part of all of this data are available for purchase; enquire via the Dauntless Aviation helpdesk. A number of mechanisms and markers exist in the database to protect against and identify infringement / copyright. Automated queries against this website are stictly prohibited, and all activity is logged and analyzed.